Terug naar catalogus

HULIANWANG DIGUI-89

ActiefCommunicatieLEO
NORAD 65997·PAYLOAD·🇨🇳 China

Gelanceerd Oct 16, 2025 vanaf Wenchang Space Launch Site

Loading…

Volgende Passages (komende 24 uur)

TLE

VersSource: Space-Track

Epoch: Sep 14, 2026, 14:53 UTC

1 65997U 25231C   26257.62022384 -.00000096  00000-0  59713-4 0  9993
2 65997  49.9954 214.8951 0000320  38.3091 321.7804 13.29327338 44786

Volg HULIANWANG DIGUI-89 in realtime met AllMySat

Download on the App Store